Weather Roundup
Issued by NWS

Home | Current Version | Previous Version | Graphics & Text | Print | Product List | Glossary Off
Versions: 1 2 3 4 5 6 7 8 9 10 11 12 13 14 15 16 17 18 19 20 21 22 23 24 25 26 27 28 29 30 31 32 33 34 35 36 37 38 39 40 41 42 43 44 45 46 47 48 49 50

000
NZUS93 KARX 290859
HRRWXR

CURRENT HOURLY OBSERVATIONS ACROSS
MUCH OF THE UPPER MISSISSIPPI VALLEY
NATIONAL WEATHER SERVICE LA CROSSE WI
400 AM CDT WED JUL 29 2015


...SOUTHEAST MINNESOTA...


CITY           SKY/WX    TMP DP  RH WIND       PRES   REMARKS
ROCHESTER      PTCLDY    63  58  83 W12       29.99S
ROCHESTER/MAYO FAIR      67  57  70 W12       29.98S
WINONA         CLOUDY    72  59  64 W5        29.95R
AUSTIN         MOCLDY    63  59  88 SW5       30.01R
ALBERT LEA     PTCLDY    64  59  82 W3        30.02R
DODGE CENTER   PTCLDY    61  57  88 W8        29.99S
PRESTON        CLOUDY    64  58  81 W9        29.99S
OWATONNA       CLEAR     63  57  82 SW7       29.99S
FARIBAULT      CLEAR     63  59  88 S3        29.98S
$$

...ELSEWHERE IN MINNESOTA...


CITY           SKY/WX    TMP DP  RH WIND       PRES   REMARKS
MINNEAPOLIS    CLEAR     67  54  63 SW9       29.92S
INTNL FALLS    LGT RAIN  64  50  60 SW15G29   29.55S
DULUTH         CLEAR     64  50  60 SW14      29.73F
RED WING       CLEAR     66  57  72 W6        29.93R
REDWOOD FALLS  CLEAR     64  52  64 SW13      29.97R
MANKATO        CLEAR     61  55  82 SW7       29.98S
WORTHINGTON    CLEAR     57  50  77 SW9       30.06R
FAIRMONT       CLEAR     63  52  67 W8        30.02S
$$

...SOUTHWEST WISCONSIN...


CITY           SKY/WX    TMP DP  RH WIND       PRES   REMARKS
LA CROSSE      CLOUDY    71  61  70 NW6       29.94R
PRAIRIE DU CHI CLOUDY    75  66  73 W7        29.95R
BOSCOBEL       CLOUDY    75  71  87 CALM      29.94R
LONE ROCK      CLOUDY    74  71  91 W6        29.94R
PLATTEVILLE    CLOUDY    72  71  98 W6        29.96R
FORT MC COY    CLOUDY    73  63  71 W5        29.94S
VIROQUA        PTSUNNY   71  65  82 NW6       29.96S
WIS DELLS      CLOUDY    74  68  82 W7        29.93R
$$

...ELSEWHERE IN WISCONSIN...


CITY           SKY/WX    TMP DP  RH WIND       PRES   REMARKS
MILWAUKEE      MOCLDY    76  71  85 SW7       29.90S
MADISON        CLOUDY    77  70  79 VRB6      29.92R
GREEN BAY      CLOUDY    73  70  90 S5        29.86S FOG
EAU CLAIRE     NOT AVBL
BLACK RVR FLS  PTSUNNY   71  62  72 SW3       29.93R
MEDFORD        MOCLDY    67  57  71 W7        29.91S
WAUSAU         CLOUDY    73  56  54 W10       29.89R
WIS RAPIDS     CLOUDY    75  58  55 NW8       29.93R
MARSHFIELD     CLOUDY    70  57  63 W8        29.92R
RICE LAKE      CLEAR     64  56  74 SW5       29.90F
$$

...NORTHEAST IOWA...


CITY           SKY/WX    TMP DP  RH WIND       PRES   REMARKS
DECORAH        CLOUDY    72  64  78 NW6G13    29.97S
MASON CITY     MOCLDY    62  60  93 W10       30.04R
CHARLES CITY   CLOUDY    66  66 100 W7        30.01R
OELWEIN          N/A    N/A N/A N/A NW6       30.00R
$$

...ELSEWHERE IN IOWA...


CITY           SKY/WX    TMP DP  RH WIND       PRES   REMARKS
DES MOINES     CLOUDY    73  70  90 CALM      30.03R
IOWA CITY      LGT RAIN  72  70  93 NW10      29.99S
FORT DODGE     CLOUDY    63  59  88 W5        30.07R
$$

...NORTHERN ILLINOIS...


CITY           SKY/WX    TMP DP  RH WIND       PRES   REMARKS
CHICAGO-OHARE  CLOUDY    77  71  82 SW5       29.93R
CHICAGO-MIDWAY CLOUDY    78  71  79 SW9       29.92S
MOLINE         LGT RAIN  75  71  87 W9        29.96R
ROCKFORD       CLOUDY    74  70  87 S5        29.94F
PEORIA         CLOUDY    75  72  90 N3        29.95R FOG
$$

NOTE: "FAIR" INDICATES FEW OR NO CLOUDS BELOW 12,000 FEET WITH NO
SIGNIFICANT WEATHER AND/OR OBSTRUCTIONS TO VISIBILITY. WIND
SPEEDS ARE IN MILES-PER-HOUR.



USA.gov is the U.S. government's official web portal to all federal, state and local government web resources and services.